Showing default

ORBCOMM FM 41, 33061

Orbit data source: Space-Track

ORBCOMM FM 41, 33061 is a payload satellite owned by Orbcomm (US) in LEO that was launched on Thu, 19 Jun 2008 UTC via a KOSMOS 11K65M launch vehicle from the Kapustin Yar Missile And Space Complex (KYMTR). Payload-class satellites include a variety of spacecraft equipped with specific instruments for various scientific and technological missions. These include communications satellites like Starlink; space stations such as the ISS; scientific satellites like the Hubble; Earth observation satellites from companies like Planet Labs, Umbra, and HawkEye 360; GPS; miniature CubeSats for education and research; and military/defense satellites.

Loading next visibility...
Identifier
33061, 2008-031B
Orbit
LEO
Country
Flag of USUS / ORB
Related business
Manufacturer
OHB/POLK
Mission
Non-operational Commercial Communications
Bus & Motor
STERKH, Unknown motor
Mass
115 kg wet, 115 kg dry
Launch date (UTC)
2008-06-19 (18 years ago)
Launch vehicle
KOSMOS 11K65M
Launch site
Kapustin Yar Missile And Space Complex (KYMTR)
Object type
Payload
Rocket body
Debris
Shape & HBR
Box + 1 Ant, 0.8 m
Radar Cross Section
2.947 m², Large (>1 m²)

Expand to show TLE details & history
Last TLE update: 1 day ago

TLE from 1 day ago
0 ORBCOMM FM 41
1 33061U 08031B   26167.97304564  .00001139  00000-0  16669-3 0  9990
2 33061  48.4450  23.4398 0003775 161.7943 297.8675 14.82606119968333
Epoch: 2026-06-16T23:21Z
TLE epoch observation values (Epoch: 2026-06-16T23:21:11.143Z)
Latitude
47.69669°
Longitude
-127.73998°
Altitude
624.683 km
Speed
7.553 km/s
True Right ascension
08h 31m 10s
True Declination
47° 31' 20"
Sunlit
Object was in daylight at epoch
Visualization orbit readout
Latitude
Unknown
Longitude
Unknown
Altitude
Unknown
Speed
Unknown
Apparent Right ascension
Unknown
Apparent Declination
Unknown
Sunlit
N/A
Visualization observer readout
Local Sidereal Time
13:11:07
Azimuth
Unknown
Elevation
Unknown
Doppler factor
Unknown
Orbital elements
Apogee altitude
624.764 km
Perigee altitude
619.479 km
Semi-major axis
7,000.258 km
Eccentricity
0.00038
Inclination
48.445°
RAAN
23.4398°
Arg. of periapsis
161.7943°
True anomaly
297.82925°
Mean anomaly
297.8675°
Eccentric anomaly
297.84838°
Mean motion
3.70572 °/min
Orbital period
97.15 mins
BSTAR
0.00016669
Loading maneuver chart data...
Computing Atmospheric mass density...
Loading historical data...
Loading historical data...
Loading historical data...
Loading historical data...
Loading historical data...
Loading historical data...
Loading historical data...

Documentation

Showing up to 5 results
|